Terug naar catalogus

STARLINK-31030

ActiefCommunicatieVLEO
NORAD 58542·PAYLOAD·🇺🇸 United States

Gelanceerd Dec 8, 2023 vanaf Vandenberg Space Force Base

Loading…

Volgende Passages (komende 24 uur)

TLE

VersSource: CelesTrak SupGP

Epoch: Sep 15, 2026, 03:00 UTC

1 58542C 23192M   26258.12548611 -.00029982  00000+0 -88566-3 0  2587
2 58542  53.1572 258.7230 0001312  95.4146  16.7332 15.34411395    11

Volg STARLINK-31030 in realtime met AllMySat

Download on the App Store